Phoenix, AZ

10:02 AM MST on February 27, 2017 (GMT -0700)
Phoenix Sky Harbor International

Weather History for KPHX - March, 2013

Change the Weather History Date:

Friday, March 22, 2013

  Actual Average Record
Temperature  
Mean Temperature 72 °F 66 °F  
Max Temperature 84 °F 78 °F 94 °F (1990)
Min Temperature 60 °F 55 °F 32 °F (1897)
Degree Days  
Heating Degree Days 0 2  
Month to date heating degree days 34 66  
Since 1 July heating degree days 881 899  
Cooling Degree Days 7 3  
Month to date cooling degree days 108 49  
Year to date cooling degree days 116 66  
Growing Degree Days 21 (Base 50)    
Moisture  
Dew Point 33 °F    
Average Humidity 29    
Maximum Humidity 46    
Minimum Humidity 11    
Precipitation  
Precipitation 0.00 in 0.03 in 0.81 in (1954)
Month to date precipitation 0.85 0.78  
Year to date precipitation 2.55 2.61  
Snow  
Snow 0.00 in - - ()
Month to date snowfall 0.0  
Year to date snowfall 0.0  
Since 1 July snowfall 0.0  
Snow Depth 0.00 in    
Sea Level Pressure  
Sea Level Pressure 29.66 in    
Wind  
Wind Speed 7 mph (SSW)    
Max Wind Speed 18 mph    
Max Gust Speed 25 mph    
Visibility 10 miles    
Events      
T = Trace of Precipitation, MM = Missing Value Source: NWS Daily Summary

Daily Weather History Graph

Daily Weather History Graph

Search for Another Location

Airport or City:

Trip Planner

Search our weather history database for the weather conditions in past years. The results will help you decide how hot, cold, wet, or windy it might be!

Date:

Astronomy

Mar. 22, 2013 Rise Set
Actual Time 6:28 AM MST 6:41 PM MST
Civil Twilight 6:03 AM MST 7:06 PM MST
Nautical Twilight 5:34 AM MST 7:35 PM MST
Astronomical Twilight 5:05 AM MST 8:04 PM MST
Moon 2:23 PM MST (3/22) 3:18 AM MST (3/22)
Length of Visible Light 13h 02m
Length of Day
12h 12m
Waxing Gibbous, 78% of the Moon is Illuminated
Mar 22
Waxing Gibbous
Mar 27
Full
Apr 2
Last Quarter
Apr 10
New
Apr 18
First Quarter

Hourly Weather History & Observations

Time (MST) Temp. Dew Point Humidity Pressure Visibility Wind Dir Wind Speed Gust Speed Precip Events Conditions
12:51 AM 68.0 °F 39.0 °F 35% 29.63 in 10.0 mi East 8.1 mph - N/A   Scattered Clouds
1:51 AM 66.0 °F 39.9 °F 38% 29.62 in 10.0 mi ESE 4.6 mph - N/A   Partly Cloudy
2:51 AM 64.9 °F 41.0 °F 42% 29.62 in 10.0 mi East 6.9 mph - N/A   Partly Cloudy
3:51 AM 63.0 °F 41.0 °F 45% 29.62 in 10.0 mi East 5.8 mph - N/A   Clear
4:51 AM 62.1 °F 41.0 °F 46% 29.63 in 10.0 mi East 4.6 mph - N/A   Clear
5:51 AM 61.0 °F 39.0 °F 44% 29.64 in 10.0 mi East 8.1 mph - N/A   Clear
6:51 AM 61.0 °F 39.9 °F 46% 29.66 in 10.0 mi East 4.6 mph - N/A   Clear
7:51 AM 63.0 °F 37.9 °F 40% 29.69 in 10.0 mi East 4.6 mph - N/A   Clear
8:51 AM 68.0 °F 37.9 °F 33% 29.69 in 10.0 mi East 5.8 mph - N/A   Clear
9:51 AM 72.0 °F 37.0 °F 28% 29.70 in 10.0 mi ESE 4.6 mph - N/A   Clear
10:51 AM 75.9 °F 35.1 °F 23% 29.69 in 10.0 mi Calm Calm - N/A   Partly Cloudy
11:51 AM 78.1 °F 34.0 °F 20% 29.68 in 10.0 mi Calm Calm - N/A   Partly Cloudy
12:51 PM 79.0 °F 34.0 °F 20% 29.66 in 10.0 mi WNW 8.1 mph - N/A   Partly Cloudy
1:51 PM 82.9 °F 33.1 °F 17% 29.64 in 10.0 mi WSW 9.2 mph - N/A   Partly Cloudy
2:51 PM 82.9 °F 30.0 °F 15% 29.62 in 10.0 mi WNW 15.0 mph 20.7 mph N/A   Scattered Clouds
3:51 PM 82.9 °F 27.0 °F 13% 29.62 in 10.0 mi WSW 16.1 mph 20.7 mph N/A   Scattered Clouds
4:51 PM 82.9 °F 28.0 °F 14% 29.62 in 10.0 mi SW 16.1 mph - N/A   Partly Cloudy
5:51 PM 82.0 °F 23.0 °F 11% 29.62 in 10.0 mi West 10.4 mph - N/A   Partly Cloudy
6:51 PM 80.1 °F 24.1 °F 13% 29.62 in 10.0 mi WSW 10.4 mph - N/A   Partly Cloudy
7:51 PM 75.9 °F 26.1 °F 16% 29.65 in 10.0 mi WSW 6.9 mph - N/A   Clear
8:51 PM 75.0 °F 27.0 °F 17% 29.67 in 10.0 mi WSW 8.1 mph - N/A   Clear
9:51 PM 72.0 °F 28.0 °F 20% 29.69 in 10.0 mi WSW 6.9 mph - N/A   Clear
10:51 PM 69.8 °F 26.6 °F 20% 29.74 in 10.0 mi WSW 4.6 mph - N/A   Clear
11:51 PM 71.1 °F 21.0 °F 15% 29.72 in 10.0 mi WNW 4.6 mph - N/A   Clear